#timestamp,LO_Frequency,Hit,StdDev 
1599714015.9,286047004.1,N
1599714035.7,286047000.0,N
1599714055.6,286046998.0,N
1599714075.4,286047005.8,N
1599714095.3,286047016.5,Y
1599714115.1,286047015.0,P
1599714116.0,286047015.0,N
1599714135.8,286047013.3,N
1599714155.7,286047012.2,N
1599714175.5,286047008.8,N
1599714195.3,286047003.9,N
1599714215.2,286047002.7,N
1599714235.0,286046995.3,N
1599714235.9,286046995.3,N
1599714255.8,286046992.3,N
1599714275.6,286046987.1,N
1599714295.4,286046985.5,N
1599714315.3,286046985.0,N
1599714335.1,286046986.8,N
1599714355.8,286046983.0,N
1599714375.7,286046986.1,N
1599714395.5,286046987.6,N
1599714415.4,286046989.9,N
1599714435.2,286046988.4,N
1599714455.0,286046989.8,N
1599714455.9,286046989.8,N
1599714475.8,286046991.0,N
1599714495.6,286046986.9,N
1599714515.5,286046990.0,N
1599714535.3,286046985.4,N
1599714555.1,286046988.6,N
1599714575.9,286046992.5,N
1599714595.7,286046992.5,N
1599714615.5,286046992.3,N
1599714635.4,286046993.2,N
1599714655.2,286046991.0,N
1599714675.1,286046988.7,N
1599714676.0,286046988.7,N
1599714695.8,286046995.0,N
1599714715.6,286046999.3,N
1599714735.5,286046997.8,N
1599714755.3,286046994.0,N
1599714775.1,286046993.3,N
1599714795.9,286046995.1,N
1599714815.7,286046994.9,N
1599714835.6,286046997.0,N
1599714855.4,286046997.6,N
1599714875.2,286046999.3,N
1599714895.1,286046998.0,N
1599714896.0,286046998.0,N
1599714915.8,286046995.4,N
1599714935.7,286046999.2,N
1599714955.5,286046997.7,N
1599714975.3,286046997.5,N
1599714995.2,286046997.6,N
1599715015.0,286046994.3,N
1599715015.9,286046994.3,N
1599715035.7,286046993.2,N
1599715055.6,286046991.1,N
1599715075.4,286046989.4,Y
1599715095.3,286047000.9,P
1599715115.1,286047000.9,N
1599715135.8,286046996.7,N
1599715155.7,286046995.4,N
1599715175.5,286046996.4,N
1599715195.4,286046995.8,N
1599715215.2,286046996.4,N
1599715235.0,286046993.2,N
1599715235.9,286046993.2,N
1599715255.8,286046991.1,Y
1599715275.6,286046994.5,P
1599715295.5,286046992.8,P
1599715315.3,286046995.2,P
1599715335.1,286046997.5,N
1599715355.9,286047000.3,N
1599715375.7,286046998.1,N
1599715395.6,286047002.8,N
1599715415.4,286046998.1,N
1599715435.2,286047001.2,N
1599715455.1,286046999.5,N
1599715456.0,286046999.5,N
1599715475.8,286046997.5,N
1599715495.6,286046999.4,N
1599715515.5,286047004.4,N
1599715535.3,286047004.4,N
1599715555.2,286046998.1,N
1599715575.9,286046999.4,N
1599715595.7,286047003.4,N
1599715615.6,286047004.5,N
1599715635.4,286047003.1,N
1599715655.3,286047004.4,N
1599715675.1,286047004.9,N
1599715676.0,286047004.9,N
1599715695.8,286047006.4,N
1599715715.7,286047006.0,N
1599715735.5,286047004.3,N
1599715755.3,286047002.0,N
1599715775.2,286047002.6,N
1599715795.0,286047005.5,N
1599715795.9,286047005.5,N
1599715815.8,286047004.1,N
1599715835.6,286047000.3,N
1599715855.4,286047000.6,N
1599715875.3,286047001.7,N
1599715895.1,286047007.4,N
1599715915.9,286047002.9,N
1599715935.7,286046999.7,N
1599715955.5,286047002.2,N
1599715975.4,286047007.4,N
1599715995.2,286047006.4,N
1599716015.1,286047002.9,N
1599716016.0,286047002.9,N
1599716035.8,286047003.3,N
1599716055.6,286047001.7,N
1599716075.5,286047003.0,N
1599716095.3,286047003.2,N
1599716115.1,286047003.2,N
1599716135.9,286047002.7,N
1599716155.7,286046998.1,N
1599716175.6,286046999.3,N
1599716195.4,286047000.4,N
1599716215.3,286047003.1,N
1599716235.1,286047001.7,N
1599716236.0,286047001.7,N
1599716255.8,286047002.7,N
1599716275.7,286047001.3,N
1599716295.5,286047004.2,N
1599716315.4,286047006.3,N
1599716335.2,286047006.5,N
1599716355.0,286047002.9,N
1599716355.9,286047002.9,N
1599716375.8,286047002.5,N
1599716395.6,286047003.4,N
1599716415.4,286047003.0,N
1599716435.3,286047004.3,N
1599716455.1,286047001.5,N
1599716475.9,286046999.8,N
1599716495.7,286047005.9,N
1599716515.5,286047003.5,N
1599716535.4,286047001.8,N
1599716555.2,286047001.7,N
1599716575.0,286047003.2,N
1599716576.0,286047003.2,N
1599716595.8,286047004.6,N
1599716615.6,286047009.1,Y
1599716635.5,286047004.0,P
1599716655.3,286047001.9,N
1599716675.1,286047001.2,N
1599716695.9,286047001.2,N
1599716715.7,286047001.2,N
1599716735.6,286047006.4,Y
1599716755.4,286047007.7,P
1599716775.3,286047006.4,N
1599716795.1,286047003.6,N
1599716815.8,286047003.8,N
1599716835.7,286047009.2,Y
1599716855.5,286047003.4,P
1599716875.4,286047002.3,P
1599716895.2,286047000.7,N
1599716915.0,286047003.6,N
1599716915.9,286047003.6,N
1599716935.8,286047002.0,N
1599716955.6,286047005.4,Y
1599716975.5,286046999.4,P
1599716995.3,286046999.7,N
1599717015.1,286046998.7,N
1599717035.9,286046997.5,N
1599717055.7,286046995.5,N
1599717075.6,286046996.2,N
1599717095.4,286046995.7,N
1599717115.2,286046990.3,Y
1599717135.1,286046992.4,P
1599717136.0,286046992.4,N
1599717155.8,286046992.0,N
1599717175.6,286046993.8,N
1599717195.5,286046991.7,Y
1599717215.3,286046999.9,P
1599717235.2,286047001.6,N
1599717255.0,286047003.9,N
1599717255.9,286047003.9,N
1599717275.7,286047003.5,N
1599717295.6,286047007.0,N
1599717315.4,286047009.0,N
1599717335.3,286047006.9,N
1599717355.1,286047010.1,N
1599717375.8,286047007.2,N
1599717395.7,286047004.3,N
1599717415.5,286047006.0,N
1599717435.4,286047003.3,N
1599717455.2,286047010.5,N
1599717475.0,286047006.2,N
1599717475.9,286047006.2,N
1599717495.8,286047004.8,N
1599717515.6,286047004.9,N
1599717535.4,286047009.1,N
1599717555.3,286047006.8,N
1599717575.1,286047006.4,N
1599717595.9,286047012.2,Y
